Regional Weather Roundup
Issued by NWS Kansas City/Pleasant Hill, MO

Home | Current Version | Previous Version | Text Only | Print | Product List | Glossary On
Versions: 1 2 3 4 5 6 7 8 9 10 11 12 13 14 15 16 17 18 19 20 21 22 23 24 25 26 27 28 29 30 31 32 33 34 35 36 37 38 39 40 41 42 43 44 45 46 47 48 49 50
000
ASUS43 KEAX 241404
RWREAX

WEATHER ROUNDUP FOR EASTERN KANSAS AND NORTHWEST MISSOURI
NATIONAL WEATHER SERVICE KANSAS CITY/PLEASANT HILL MO
900 AM CDT SUN MAY 24 2015

KSZ040-057-103>105-MOZ028-029-037-043-241500-
...KANSAS CITY METROPOLITAN AREA...

CITY           SKY/WX    TMP DP  RH WIND       PRES   REMARKS
K.C. INTL      CLOUDY    65  65 100 S9        29.88F
K.C. DOWNTOWN  CLOUDY    67  64  90 SW3       29.88F
LEES SUMMIT    LGT RAIN  65  63  93 SW10      29.90F FOG
OLATHE - IXD   CLOUDY    65  62  90 S8        29.89F
OLATHE - OJC   CLOUDY    65  63  93 VRB6      29.89S
LAWRENCE       CLOUDY    66  62  87 S6        29.88F

$$

MOZ001>008-011>017-020>025-030>033-038>040-044>046-053-054-241500-
...NORTHERN AND CENTRAL MISSOURI...

CITY           SKY/WX    TMP DP  RH WIND       PRES   REMARKS
ST. JOSEPH     CLOUDY    64  62  93 S8        29.87F
MOSBY          CLOUDY    64  64 100 SE6       29.88F FOG
WARRENSBURG    DRIZZLE   64  63  94 S5        29.90F
WHITEMAN AFB   CLOUDY    66  64  93 S12G21    29.89F
CLINTON        NOT AVBL
SEDALIA        CLOUDY    67  63  87 SE16      29.94F
WARSAW         NOT AVBL
CHILLICOTHE      N/A     64  64 100 S8        29.93S
KIRKSVILLE     LGT RAIN  62  60  93 SE14      29.96F

$$

MOZ041-047>049-056>058-063>065-088>090-097-241500-
...EASTERN AND SOUTHERN MISSOURI...

CITY           SKY/WX    TMP DP  RH WIND       PRES   REMARKS
ST. LOUIS INTL PTSUNNY   73  59  61 S12G26    30.07F
SPIRIT OF STL  PTSUNNY   72  61  68 VRB5      30.04F
COLUMBIA       CLOUDY    66  59  78 SE10      29.97F
JEFFERSON CITY CLOUDY    69  59  70 SE10      29.97F
ROLLA          CLOUDY    70  62  76 SE12      30.00F
OSAGE BEACH    CLOUDY    72  63  73 S12       29.97S
SPRINGFIELD    CLOUDY    67  64  90 S9        29.95F
BRANSON        PTSUNNY   68  66  94 SE14      29.98F
JOPLIN         CLOUDY    67  64  90 S3        29.91S
WEST PLAINS    CLOUDY    67  63  87 S10       30.05F

$$

IAZ060-094-KSZ022-034>040-054-083-096-NEZ052-066-093-241500-
...KANSAS...SOUTHEAST NEBRASKA AND IOWA...

CITY           SKY/WX    TMP DP  RH WIND       PRES   REMARKS
TOPEKA         PTSUNNY   66  62  87 SW6       29.87F
MANHATTAN      CLOUDY    63  62  97 SW7       29.87F
EMPORIA        CLOUDY    63  60  90 CALM      29.88F
CHANUTE        LGT RAIN  64  62  93 CALM      29.91S
WICHITA        CLOUDY    62  60  93 SE3       29.89F
OMAHA          DRIZZLE   61  60  97 E7        29.85F FOG
LINCOLN        CLOUDY    61  60  97 CALM      29.85F FOG
FALLS CITY     CLOUDY    64  62  93 S6        29.84F
LAMONI         CLOUDY    63  59  87 SE9       29.91S FOG
DES MOINES     CLOUDY    62  59  90 SE16G24   29.92F

$$



USA.gov is the U.S. government's official web portal to all federal, state and local government web resources and services.